GFSNIL_850_spd_102.txt.gz
Wind_Speed
34 31 27 24 22 24 23 24 28 31 32 34 36 34 35 39 41 41 49 36 41 49
29 27 23 21 18 19 20 22 21 21 27 30 32 34 34 39 42 45 44 42 47 51
23 21 21 23 22 21 21 22 22 22 22 25 30 32 37 41 39 44 46 42 47 47
22 20 22 24 20 19 20 21 20 23 26 25 28 31 34 39 44 41 46 45 42 47
23 21 22 20 17 17 16 21 25 25 23 25 28 32 35 35 47 44 45 44 51 51
19 18 17 16 15 15 20 19 17 18 19 22 24 29 36 37 42 41 42 38 43 48
12 13 14 13 13 13 11 9 12 11 8 10 14 17 22 26 35 39 36 35 43 51
7 9 10 9 10 7 7 8 8 10 6 6 6 10 17 31 29 24 29 34 33 44
11 11 12 11 8 9 10 9 8 11 11 7 6 5 6 18 31 31 32 36 38 35
14 16 17 15 13 12 11 10 12 15 15 14 13 11 7 6 10 25 29 32 35 34
6 12 16 19 20 15 13 15 16 16 16 16 17 16 14 16 15 14 14 20 19 22
6 7 15 17 18 17 15 12 14 14 14 15 16 15 12 12 17 18 19 21 23 22
13 10 10 10 13 16 15 16 12 11 11 12 10 14 13 11 14 17 17 19 23 25
19 15 12 15 15 15 14 15 13 11 10 9 8 8 8 9 12 15 17 16 15 15

GFSNIL_850_spd_105.txt.gz
Wind_Speed
38 33 36 38 35 31 35 34 41 36 36 35 36 37 36 37 38 39 37 42 40 44
34 34 33 30 28 26 24 23 27 33 34 34 34 33 32 34 37 38 40 43 43 43
26 24 25 25 26 24 19 19 23 22 24 25 28 30 29 34 36 38 39 42 42 44
19 22 24 24 22 21 20 22 22 22 22 23 21 24 29 32 33 38 40 40 44 41
18 20 21 21 20 19 19 18 21 21 22 22 24 25 28 32 39 41 39 41 45 45
19 20 20 20 17 17 18 18 20 21 21 19 21 25 29 33 36 39 41 41 45 49
11 13 15 14 13 13 14 15 14 13 15 15 14 17 24 27 33 38 40 38 48 46
14 10 8 8 7 9 10 8 7 8 9 9 9 10 13 20 24 26 26 36 36 45
14 14 12 9 8 8 9 8 9 10 12 11 10 10 11 12 13 17 26 33 29 33
9 12 13 11 11 12 10 12 12 12 15 15 15 13 13 12 10 10 20 26 31 29
14 5 6 9 12 14 14 13 14 16 17 17 18 18 18 16 13 10 8 16 24 27
22 18 11 4 4 7 8 12 13 13 14 12 13 15 15 13 13 13 11 9 8 14
24 20 19 17 10 9 6 7 6 8 6 8 9 10 9 7 10 13 14 13 14 14
29 27 23 18 16 14 13 13 11 10 9 6 3 3 4 5 7 8 10 10 10 15

GFSNIL_850_spd_108.txt.gz
Wind_Speed
34 38 42 41 40 39 42 43 38 33 37 36 31 37 36 36 35 36 37 38 38 39
27 32 34 33 33 33 32 29 27 33 35 34 33 34 35 36 36 37 37 38 38 38
25 25 22 24 24 21 19 19 21 21 24 31 31 32 32 33 34 33 33 35 34 37
20 18 20 20 18 19 18 17 18 17 21 26 28 27 26 27 29 30 32 35 38 40
13 15 17 18 17 16 17 20 19 19 21 21 22 21 22 24 27 30 33 35 37 40
14 10 13 15 14 16 17 19 17 18 19 21 22 22 24 26 28 30 31 34 36 43
8 7 7 10 11 12 13 11 13 16 20 22 21 22 24 25 26 29 33 37 40 40
12 16 15 14 12 10 6 6 9 9 13 16 16 15 16 12 11 17 24 29 34 36
12 16 16 13 16 11 9 9 8 9 10 12 13 10 11 11 12 14 17 19 25 26
17 17 16 17 15 13 12 12 13 12 13 13 13 13 14 13 16 17 19 19 17 22
23 20 19 13 11 11 7 7 6 4 5 8 12 15 16 17 18 18 19 19 17 18
29 27 24 23 21 15 7 6 5 2 1 4 6 11 13 13 14 14 15 12 9 7
35 32 30 26 24 22 19 18 13 13 14 8 5 7 3 5 6 9 10 10 8 9
36 35 34 31 27 24 23 21 21 20 22 21 17 15 11 5 2 2 3 5 5 5

GFSNIL_850_spd_111.txt.gz
Wind_Speed
35 36 39 37 36 41 42 42 46 43 43 38 35 35 35 30 31 35 33 33 36 36
29 33 36 35 34 33 34 36 38 42 39 37 36 37 33 27 29 32 32 33 33 36
22 28 31 31 29 30 29 29 32 37 36 35 36 33 30 25 28 29 30 32 33 35
21 22 24 26 25 25 25 22 25 27 28 30 29 27 28 27 27 28 29 31 32 32
16 15 17 19 19 19 20 20 24 23 22 18 18 20 23 25 26 25 26 27 30 32
13 12 10 12 14 15 18 19 21 21 19 17 16 17 17 19 22 21 24 26 28 33
14 14 13 10 11 12 12 15 16 15 14 15 15 16 18 21 23 26 28 30 35 37
18 18 18 17 20 22 22 19 16 14 12 11 13 17 19 21 22 21 20 19 23 28
23 18 23 23 23 19 17 16 14 10 8 10 16 16 15 13 14 14 15 18 18 19
32 26 23 22 21 21 17 12 10 13 12 13 14 15 14 14 15 16 19 21 23 22
34 33 27 24 25 22 16 14 14 10 7 7 10 14 14 16 16 16 17 17 20 21
36 35 34 33 29 26 23 23 20 17 12 5 3 5 7 8 8 10 11 10 12 16
38 38 37 35 36 33 31 30 27 26 26 23 21 17 9 1 2 3 4 5 6 8
38 37 37 36 34 34 34 32 32 32 31 31 28 26 22 21 10 8 6 4 5 7

GFSNIL_850_spd_114.txt.gz
Wind_Speed
40 33 41 38 34 34 37 40 43 52 53 49 44 38 36 35 37 38 36 36 38 30
35 28 38 36 34 33 35 36 38 46 48 48 45 41 35 39 38 34 31 36 37 35
27 29 31 32 36 32 31 30 33 36 39 43 42 40 39 40 37 33 32 37 35 34
22 27 23 29 31 28 27 27 30 28 31 37 41 41 41 38 33 33 30 30 30 31
17 20 19 21 24 26 26 27 28 28 27 33 35 36 34 30 28 31 28 27 28 29
17 16 15 15 15 19 22 21 22 24 25 27 24 25 27 27 27 26 25 26 25 23
16 14 15 16 17 19 20 20 22 22 21 21 21 23 22 22 22 24 23 22 22 24
22 18 19 20 19 18 19 21 22 22 22 24 24 24 23 19 18 18 20 20 22 24
38 28 26 26 27 27 26 25 24 23 21 19 18 18 18 16 17 19 21 21 20 19
40 37 37 31 31 31 27 23 20 16 11 6 5 10 13 14 15 16 18 18 19 20
40 40 38 35 33 34 31 29 23 19 15 7 3 7 12 13 13 14 16 17 18 18
41 40 39 40 36 34 33 34 34 27 26 19 20 14 7 0 6 8 9 12 13 14
40 40 40 37 36 36 36 36 34 35 32 31 29 25 20 14 10 7 5 6 8 10
37 38 37 35 35 35 36 36 35 34 33 32 32 31 29 24 20 17 15 15 15 15

GFSNIL_850_spd_120.txt.gz
Wind_Speed
34 35 35 37 39 42 43 45 37 45 47 53 55 50 52 52 48 43 43 43 43 43
31 33 35 39 41 43 45 49 43 40 48 49 52 50 49 50 49 45 44 42 41 41
23 26 30 35 41 44 45 47 40 39 41 47 45 48 47 50 47 46 45 42 40 39
19 22 26 28 34 43 42 45 37 36 43 44 29 40 41 48 49 46 44 44 40 37
13 11 10 13 13 23 27 34 34 36 40 48 41 41 37 40 51 46 41 41 41 39
18 15 11 9 3 9 21 25 29 29 32 34 36 34 31 37 45 42 40 37 38 37
34 28 22 20 19 17 9 7 5 10 24 29 32 31 35 37 36 34 34 34 33 32
41 39 35 33 30 20 15 10 13 16 16 13 15 21 25 29 31 35 34 29 30 27
47 49 52 46 44 42 37 30 31 28 23 17 15 16 17 27 29 32 32 31 25 23
48 51 54 54 51 53 51 46 44 40 35 33 29 20 17 18 20 17 18 17 16 15
46 48 50 50 52 51 48 50 49 47 46 41 39 32 29 26 19 19 20 14 9 7
41 43 44 47 48 48 45 49 47 44 44 42 41 36 37 33 28 23 28 24 22 12
40 40 40 40 40 39 39 41 42 40 41 38 40 37 38 31 36 31 28 25 22 22
39 40 39 37 37 37 37 35 35 36 34 34 33 34 32 32 30 30 30 29 29 27

GFSNIL_850_spd_123.txt.gz
Wind_Speed
31 33 34 37 40 41 40 43 46 46 44 35 37 45 47 50 48 41 43 57 43 48
25 26 28 29 32 37 40 39 42 45 43 43 38 43 43 48 45 43 44 42 51 59
19 20 22 23 27 32 36 39 40 43 46 42 40 39 41 45 46 42 45 44 47 43
15 14 18 21 24 28 32 33 34 37 38 42 36 32 38 43 39 36 46 49 44 42
13 11 11 8 9 8 17 25 25 25 26 30 33 33 42 42 48 51 45 48 45 42
25 21 20 16 10 6 4 5 11 17 21 27 32 34 33 28 37 36 45 44 49 46
38 36 30 27 26 23 20 18 15 10 11 19 26 34 34 34 32 35 40 39 42 42
45 43 42 40 37 37 34 34 29 23 19 11 8 9 9 24 26 32 35 35 41 43
46 49 49 50 49 45 47 44 29 37 37 41 33 24 15 15 18 27 31 24 22 26
42 45 47 47 50 52 52 52 53 51 48 48 42 36 37 33 26 29 22 19 17 13
38 39 41 43 45 46 48 48 51 49 49 49 45 41 41 38 37 36 34 33 32 22
37 37 39 41 42 42 43 44 45 45 46 45 44 42 39 39 38 37 37 34 29 29
40 40 40 40 41 41 42 43 43 43 42 40 41 40 38 38 36 35 35 32 30 29
38 39 39 39 40 40 40 40 42 43 43 42 41 39 37 35 34 33 30 32 32 30

GFSNIL_850_spd_126.txt.gz
Wind_Speed
26 26 27 29 30 34 37 39 35 36 38 39 41 41 36 34 36 46 50 49 44 47
24 23 24 25 25 27 29 31 31 32 35 37 37 40 43 38 33 37 40 42 37 31
23 21 20 22 23 24 24 25 30 31 32 34 36 37 38 40 37 37 36 35 32 32
22 18 15 17 15 17 19 19 24 22 23 28 31 32 33 37 34 34 30 35 34 38
25 19 16 14 12 9 9 9 11 16 19 23 29 32 31 34 30 33 31 31 34 37
33 27 25 23 21 18 14 12 7 7 12 16 21 22 26 28 31 26 25 28 32 40
37 35 31 32 34 32 32 30 26 21 15 7 2 9 18 21 21 19 25 23 30 29
37 39 39 38 36 40 37 38 39 38 34 26 8 9 2 8 15 13 14 21 23 25
37 39 42 44 44 44 44 43 43 46 47 46 43 32 20 17 13 9 10 11 12 13
34 35 39 39 41 43 45 44 46 46 46 47 45 40 40 38 37 38 33 24 20 15
34 36 38 38 39 39 39 40 42 44 44 44 43 40 40 38 38 37 36 37 34 31
32 34 36 38 38 38 39 40 41 41 42 41 42 38 36 35 34 36 39 38 36 33
33 33 35 35 36 36 37 39 38 39 40 40 40 38 36 34 33 34 32 34 33 35
32 34 35 34 34 34 36 36 37 38 38 38 40 37 37 35 34 33 32 32 32 29

GFSNIL_850_spd_129.txt.gz
Wind_Speed
28 27 26 26 27 29 29 28 26 25 25 26 27 32 37 40 39 36 36 41 44 45
26 25 23 22 23 26 25 24 24 23 26 24 23 25 30 37 39 38 39 39 36 39
23 23 20 20 21 20 21 21 21 21 23 18 18 20 23 26 31 37 36 32 31 32
26 21 17 15 13 13 13 14 13 12 11 6 11 14 19 21 22 27 29 30 28 27
25 23 19 18 16 17 16 14 12 10 7 5 7 11 15 19 20 19 20 24 26 22
25 28 27 26 26 25 24 24 20 18 14 11 6 5 9 12 14 17 22 20 23 27
29 29 31 31 33 37 36 35 34 31 29 24 18 11 6 2 10 11 14 15 18 21
32 33 35 38 38 40 42 43 43 40 39 37 32 27 20 14 11 10 9 8 9 11
29 31 34 36 38 40 43 44 44 45 44 43 44 34 32 27 25 18 16 15 12 6
31 33 34 35 35 36 38 39 42 43 44 43 40 37 37 39 37 35 31 27 23 21
28 30 31 33 35 37 38 39 40 41 39 39 38 34 35 35 37 38 37 36 32 28
26 28 29 32 33 34 34 36 37 37 38 38 38 36 32 30 32 33 34 33 32 30
25 25 28 28 30 31 32 34 34 34 36 36 36 35 33 31 32 30 30 29 30 30
24 26 27 27 28 29 30 30 32 34 34 35 34 34 35 34 33 31 29 29 28 25

GFSNIL_850_spd_135.txt.gz
Wind_Speed
23 23 23 22 23 21 23 24 25 25 24 25 27 28 29 33 34 34 38 41 39 37
23 21 21 20 18 18 18 21 21 20 21 22 24 23 27 26 26 28 31 38 41 37
22 20 18 17 16 15 16 19 17 16 14 13 12 13 13 17 17 18 23 31 40 36
23 21 18 18 18 18 18 20 20 18 14 8 4 2 1 4 10 5 8 13 21 27
22 22 22 23 24 24 25 25 25 25 20 16 12 8 2 3 5 9 12 11 14 17
22 24 25 26 29 31 32 33 33 33 31 27 24 20 17 13 10 6 5 3 4 7
23 23 24 26 29 32 34 38 40 40 39 36 32 29 27 23 21 20 17 14 11 8
24 23 23 24 25 28 32 35 38 39 41 41 40 36 32 32 30 29 26 26 25 22
22 22 23 24 26 29 31 33 34 37 38 39 40 36 35 33 34 34 34 32 30 28
21 22 25 26 27 29 32 32 35 37 39 39 36 33 32 33 33 33 36 35 34 33
21 23 25 26 30 31 32 34 35 38 37 38 38 35 34 34 34 34 33 33 33 32
21 22 24 26 28 30 31 32 34 34 36 37 38 36 34 33 34 35 36 35 35 33
20 22 23 25 27 28 30 32 33 34 35 36 36 35 34 34 34 35 34 34 36 36
19 22 23 23 25 27 29 29 31 32 33 33 34 33 33 34 35 35 33 34 34 33